Home > Weather > Leerdam > Past weeks

Flag for Netherlands Past Weather in Leerdam, Netherlands — Yesterday and Last 2 Weeks

Now
57 °F

Overcast.


Feels Like: 56 °F
Forecast: 54 / 66 °F
Wind: 6 mph from Southwest

Location: De Bilt

Current Time: Jul 2, 2016 at 6:01:05 AM

Latest Report: Jul 2, 2016 at 5:00 AM


Visibility: 11 mi

Pressure: 29.83 "Hg

Humidity: 87%

Dew Point: 53 °F

Location of LeerdamLocation

Past Weather in Leerdam — Graph

°F

Leerdam Temperature Yesterday

Maximum temperature yesterday: 66 °F (at 1:00 PM)
Minimum temperature yesterday: 60 °F (at 12:00 AM)
Average temperature yesterday: 63 °F

High & Low Weather Summary for the Past Weeks

 TemperatureHumidityPressure
High82 °F (Jun 23, 5:00 PM)100% (Jun 18, 4:00 AM)30.26 "Hg (Jun 18, 4:00 AM)
Low49 °F (Jun 28, 5:00 AM)53% (Jun 19, 12:00 PM)29.60 "Hg (Jun 17, 4:00 AM)
Average62 °F84%29.99 "Hg
* Reported Jun 17 4:00 AM — Jul 2 4:00 AM, Leerdam, Weather by CustomWeather, © 2016

Note: Actual official high and low records may vary slightly from our data, if they occured in-between our weather recording intervals... More about our weather records

Advertising

Leerdam Weather History for the Previous 24 Hours

Scroll right to see more
 ConditionsComfort  
Time TempWeatherWind HumidityBarometerVisibility
4:00 AM
Sat, Jul 2
57 °FOvercast.6 mph87%29.81 "Hg12 mi
3:00 AM57 °FOvercast.5 mph87%29.81 "Hg15 mi
2:00 AM58 °FSprinkles. Overcast.6 mph83%29.81 "Hg18 mi
1:00 AM59 °FSprinkles. Overcast.6 mph81%29.80 "Hg17 mi
12:00 AM61 °FOvercast.5 mph88%29.80 "Hg25 mi
11:00 PM
Fri, Jul 1
61 °FOvercast.5 mph90%29.80 "Hg28 mi
10:00 PM62 °FOvercast.3 mph92%29.80 "Hg17 mi
9:00 PM62 °FOvercast.5 mph89%29.81 "Hg25 mi
8:00 PM62 °FDrizzle. Low clouds.5 mph93%29.82 "Hg4 mi
7:00 PM64 °FOvercast.5 mph89%29.82 "Hg18 mi
6:00 PM63 °FOvercast.6 mph88%29.84 "Hg18 mi
5:00 PM64 °FOvercast.7 mph84%29.84 "Hg15 mi
4:00 PM65 °FOvercast.7 mph80%29.85 "Hg22 mi
3:00 PM65 °FOvercast.7 mph79%29.85 "Hg22 mi
2:00 PM65 °FOvercast.9 mph75%29.86 "Hg25 mi
1:00 PM66 °FOvercast.7 mph70%29.86 "Hg22 mi
12:00 PM65 °FOvercast.7 mph77%29.87 "Hg22 mi
11:00 AM63 °FOvercast.7 mph81%29.86 "Hg19 mi
10:00 AM64 °FOvercast.7 mph81%29.85 "Hg25 mi
9:00 AM63 °FOvercast.6 mph87%29.85 "Hg15 mi
8:00 AM62 °FLow clouds.5 mph91%29.84 "Hg13 mi
7:00 AM62 °FOvercast.6 mph91%29.83 "Hg13 mi
6:00 AM61 °FRain showers. Overcast.7 mph92%29.84 "Hg7 mi
Weather by CustomWeather, © 2016

See weather overviewHow to use our weather pages